Year,Month,Day,Hour,Minute,Value (Times are PST for insolation in W/m^2)
2019,11,03,00,00,0.00
2019,11,03,00,01,0.00
2019,11,03,00,02,0.00
2019,11,03,00,03,0.00
2019,11,03,00,04,0.00
2019,11,03,00,05,0.00
2019,11,03,00,06,0.00
2019,11,03,00,07,0.00
2019,11,03,00,08,0.00
2019,11,03,00,09,0.00
2019,11,03,00,10,0.00
2019,11,03,00,11,0.00
2019,11,03,00,12,0.00
2019,11,03,00,13,0.00
2019,11,03,00,14,0.00
2019,11,03,00,15,0.00
2019,11,03,00,16,0.00
2019,11,03,00,17,0.00
2019,11,03,00,18,0.00
2019,11,03,00,19,0.00
2019,11,03,00,20,0.00
2019,11,03,00,21,0.00
2019,11,03,00,22,0.00
2019,11,03,00,23,0.00
2019,11,03,00,24,0.00
2019,11,03,00,25,0.00
2019,11,03,00,26,0.00
2019,11,03,00,27,0.00
2019,11,03,00,28,0.00
2019,11,03,00,29,0.00
2019,11,03,00,30,0.00
2019,11,03,00,31,0.00
2019,11,03,00,32,0.00
2019,11,03,00,33,0.00
2019,11,03,00,34,0.00
2019,11,03,00,35,0.00
2019,11,03,00,36,0.00
2019,11,03,00,37,0.00
2019,11,03,00,38,0.00
2019,11,03,00,39,0.00
2019,11,03,00,40,0.00
2019,11,03,00,41,0.00
2019,11,03,00,42,0.00
2019,11,03,00,43,0.00
2019,11,03,00,44,0.00
2019,11,03,00,45,0.00
2019,11,03,00,46,0.00
2019,11,03,00,47,0.00
2019,11,03,00,48,0.00
2019,11,03,00,49,0.00
2019,11,03,00,50,0.00
2019,11,03,00,51,0.00
2019,11,03,00,52,0.00
2019,11,03,00,53,0.00
2019,11,03,00,54,0.00
2019,11,03,00,55,0.00
2019,11,03,00,56,0.00
2019,11,03,00,57,0.00
2019,11,03,00,58,0.00
2019,11,03,00,59,0.00
2019,11,03,01,00,0.00
2019,11,03,01,01,0.00
2019,11,03,01,02,0.00
2019,11,03,01,03,0.00
2019,11,03,01,04,0.00
2019,11,03,01,05,0.00
2019,11,03,01,06,0.00
2019,11,03,01,07,0.00
2019,11,03,01,08,0.00
2019,11,03,01,09,0.00
2019,11,03,01,10,0.00
2019,11,03,01,11,0.00
2019,11,03,01,12,0.00
2019,11,03,01,13,0.00
2019,11,03,01,14,0.00
2019,11,03,01,15,0.00
2019,11,03,01,16,0.00
2019,11,03,01,17,0.00
2019,11,03,01,18,0.00
2019,11,03,01,19,0.00
2019,11,03,01,20,0.00
2019,11,03,01,21,0.00
2019,11,03,01,22,0.00
2019,11,03,01,23,0.00
2019,11,03,01,24,0.00
2019,11,03,01,25,0.00
2019,11,03,01,26,0.00
2019,11,03,01,27,0.00
2019,11,03,01,28,0.00
2019,11,03,01,29,0.00
2019,11,03,01,30,0.00
2019,11,03,01,31,0.00
2019,11,03,01,32,0.00
2019,11,03,01,33,0.00
2019,11,03,01,34,0.00
2019,11,03,01,35,0.00
2019,11,03,01,36,0.00
2019,11,03,01,37,0.00
2019,11,03,01,38,0.00
2019,11,03,01,39,0.00
2019,11,03,01,40,0.00
2019,11,03,01,41,0.00
2019,11,03,01,42,0.00
2019,11,03,01,43,0.00
2019,11,03,01,44,0.00
2019,11,03,01,45,0.00
2019,11,03,01,46,0.00
2019,11,03,01,47,0.00
2019,11,03,01,48,0.00
2019,11,03,01,49,0.00
2019,11,03,01,50,0.00
2019,11,03,01,51,0.00
2019,11,03,01,52,0.00
2019,11,03,01,53,0.00
2019,11,03,01,54,0.00
2019,11,03,01,55,0.00
2019,11,03,01,56,0.00
2019,11,03,01,57,0.00
2019,11,03,01,58,0.00
2019,11,03,01,59,0.00
2019,11,03,02,01,0.00
2019,11,03,02,02,0.00
2019,11,03,02,03,0.00
2019,11,03,02,04,0.00
2019,11,03,02,05,0.00
2019,11,03,02,06,0.00
2019,11,03,02,07,0.00
2019,11,03,02,08,0.00
2019,11,03,02,09,0.00
2019,11,03,02,10,0.00
2019,11,03,02,11,0.00
2019,11,03,02,12,0.00
2019,11,03,02,13,0.00
2019,11,03,02,14,0.00
2019,11,03,02,15,0.00
2019,11,03,02,16,0.00
2019,11,03,02,17,0.00
2019,11,03,02,18,0.00
2019,11,03,02,19,0.00
2019,11,03,02,20,0.00
2019,11,03,02,21,0.00
2019,11,03,02,22,0.00
2019,11,03,02,23,0.00
2019,11,03,02,24,0.00
2019,11,03,02,25,0.00
2019,11,03,02,26,0.00
2019,11,03,02,27,0.00
2019,11,03,02,28,0.00
2019,11,03,02,29,0.00
2019,11,03,02,30,0.00
2019,11,03,02,31,0.00
2019,11,03,02,32,0.00
2019,11,03,02,33,0.00
2019,11,03,02,34,0.00
2019,11,03,02,35,0.00
2019,11,03,02,36,0.00
2019,11,03,02,37,0.00
2019,11,03,02,38,0.00
2019,11,03,02,39,0.00
2019,11,03,02,40,0.00
2019,11,03,02,41,0.00
2019,11,03,02,42,0.00
2019,11,03,02,43,0.00
2019,11,03,02,44,0.00
2019,11,03,02,45,0.00
2019,11,03,02,46,0.00
2019,11,03,02,47,0.00
2019,11,03,02,48,0.00
2019,11,03,02,49,0.00
2019,11,03,02,50,0.00
2019,11,03,02,51,0.00
2019,11,03,02,52,0.00
2019,11,03,02,53,0.00
2019,11,03,02,54,0.00
2019,11,03,02,55,0.00
2019,11,03,02,56,0.00
2019,11,03,02,57,0.00
2019,11,03,02,58,0.00
2019,11,03,02,59,0.00
2019,11,03,03,00,0.00
2019,11,03,03,01,0.00
2019,11,03,03,02,0.00
2019,11,03,03,03,0.00
2019,11,03,03,04,0.00
2019,11,03,03,05,0.00
2019,11,03,03,06,0.00
2019,11,03,03,07,0.00
2019,11,03,03,08,0.00
2019,11,03,03,09,0.00
2019,11,03,03,10,0.00
2019,11,03,03,11,0.00
2019,11,03,03,12,0.00
2019,11,03,03,13,0.00
2019,11,03,03,14,0.00
2019,11,03,03,15,0.00
2019,11,03,03,16,0.00
2019,11,03,03,17,0.00
2019,11,03,03,18,0.00
2019,11,03,03,19,0.00
2019,11,03,03,20,0.00
2019,11,03,03,21,0.00
2019,11,03,03,22,0.00
2019,11,03,03,23,0.00
2019,11,03,03,24,0.00
2019,11,03,03,25,0.00
2019,11,03,03,26,0.00
2019,11,03,03,27,0.00
2019,11,03,03,28,0.00
2019,11,03,03,29,0.00
2019,11,03,03,30,0.00
2019,11,03,03,31,0.00
2019,11,03,03,32,0.00
2019,11,03,03,33,0.00
2019,11,03,03,34,0.00
2019,11,03,03,35,0.00
2019,11,03,03,36,0.00
2019,11,03,03,37,0.00
2019,11,03,03,38,0.00
2019,11,03,03,39,0.00
2019,11,03,03,40,0.00
2019,11,03,03,41,0.00
2019,11,03,03,42,0.00
2019,11,03,03,43,0.00
2019,11,03,03,44,0.00
2019,11,03,03,45,0.00
2019,11,03,03,46,0.00
2019,11,03,03,47,0.00
2019,11,03,03,48,0.00
2019,11,03,03,49,0.00
2019,11,03,03,50,0.00
2019,11,03,03,51,0.00
2019,11,03,03,52,0.00
2019,11,03,03,53,0.00
2019,11,03,03,54,0.00
2019,11,03,03,55,0.00
2019,11,03,03,56,0.00
2019,11,03,03,57,0.00
2019,11,03,03,58,0.00
2019,11,03,03,59,0.00
2019,11,03,04,00,0.00
2019,11,03,04,01,0.00
2019,11,03,04,02,0.00
2019,11,03,04,03,0.00
2019,11,03,04,04,0.00
2019,11,03,04,05,0.00
2019,11,03,04,06,0.00
2019,11,03,04,07,0.00
2019,11,03,04,08,0.00
2019,11,03,04,09,0.00
2019,11,03,04,10,0.00
2019,11,03,04,11,0.00
2019,11,03,04,12,0.00
2019,11,03,04,13,0.00
2019,11,03,04,14,0.00
2019,11,03,04,15,0.00
2019,11,03,04,16,0.00
2019,11,03,04,17,0.00
2019,11,03,04,18,0.00
2019,11,03,04,19,0.00
2019,11,03,04,20,0.00
2019,11,03,04,21,0.00
2019,11,03,04,22,0.00
2019,11,03,04,23,0.00
2019,11,03,04,24,0.00
2019,11,03,04,25,0.00
2019,11,03,04,26,0.00
2019,11,03,04,27,0.00
2019,11,03,04,28,0.00
2019,11,03,04,29,0.00
2019,11,03,04,30,0.00
2019,11,03,04,31,0.00
2019,11,03,04,32,0.00
2019,11,03,04,33,0.00
2019,11,03,04,34,0.00
2019,11,03,04,35,0.00
2019,11,03,04,36,0.00
2019,11,03,04,37,0.00
2019,11,03,04,38,0.00
2019,11,03,04,39,0.00
2019,11,03,04,40,0.00
2019,11,03,04,41,0.00
2019,11,03,04,42,0.00
2019,11,03,04,43,0.00
2019,11,03,04,44,0.00
2019,11,03,04,45,0.00
2019,11,03,04,46,0.00
2019,11,03,04,47,0.00
2019,11,03,04,48,0.00
2019,11,03,04,49,0.00
2019,11,03,04,50,0.00
2019,11,03,04,51,0.00
2019,11,03,04,52,0.00
2019,11,03,04,53,0.00
2019,11,03,04,54,0.00
2019,11,03,04,55,0.00
2019,11,03,04,56,0.00
2019,11,03,04,57,0.00
2019,11,03,04,58,0.00
2019,11,03,04,59,0.00
2019,11,03,05,00,0.00
2019,11,03,05,01,0.00
2019,11,03,05,02,0.00
2019,11,03,05,03,0.00
2019,11,03,05,04,0.00
2019,11,03,05,05,0.00
2019,11,03,05,06,0.00
2019,11,03,05,07,0.00
2019,11,03,05,08,0.00
2019,11,03,05,09,0.00
2019,11,03,05,10,0.00
2019,11,03,05,11,0.00
2019,11,03,05,12,0.00
2019,11,03,05,13,0.00
2019,11,03,05,14,0.00
2019,11,03,05,15,0.00
2019,11,03,05,16,0.00
2019,11,03,05,17,0.00
2019,11,03,05,18,0.00
2019,11,03,05,19,0.00
2019,11,03,05,20,0.00
2019,11,03,05,21,0.00
2019,11,03,05,22,0.00
2019,11,03,05,23,0.00
2019,11,03,05,24,0.00
2019,11,03,05,25,0.00
2019,11,03,05,26,0.00
2019,11,03,05,27,0.00
2019,11,03,05,28,0.00
2019,11,03,05,29,0.00
2019,11,03,05,30,0.00
2019,11,03,05,31,0.00
2019,11,03,05,32,0.00
2019,11,03,05,33,0.00
2019,11,03,05,34,0.00
2019,11,03,05,35,0.00
2019,11,03,05,36,0.00
2019,11,03,05,37,0.00
2019,11,03,05,38,0.00
2019,11,03,05,39,0.00
2019,11,03,05,40,0.00
2019,11,03,05,41,0.00
2019,11,03,05,42,0.00
2019,11,03,05,43,0.00
2019,11,03,05,44,0.00
2019,11,03,05,45,0.00
2019,11,03,05,46,0.00
2019,11,03,05,47,0.00
2019,11,03,05,48,0.00
2019,11,03,05,49,0.00
2019,11,03,05,50,0.00
2019,11,03,05,51,0.00
2019,11,03,05,52,0.00
2019,11,03,05,53,0.00
2019,11,03,05,54,0.00
2019,11,03,05,55,0.00
2019,11,03,05,56,0.00
2019,11,03,05,57,0.00
2019,11,03,05,58,0.00
2019,11,03,05,59,0.00
2019,11,03,06,00,0.00
2019,11,03,06,01,0.00
2019,11,03,06,02,0.00
2019,11,03,06,03,0.00
2019,11,03,06,04,0.00
2019,11,03,06,05,0.00
2019,11,03,06,06,0.00
2019,11,03,06,07,0.00
2019,11,03,06,08,0.00
2019,11,03,06,09,0.00
2019,11,03,06,10,0.00
2019,11,03,06,11,0.00
2019,11,03,06,12,0.00
2019,11,03,06,13,0.00
2019,11,03,06,14,0.00
2019,11,03,06,15,0.00
2019,11,03,06,16,0.00
2019,11,03,06,17,0.00
2019,11,03,06,18,0.00
2019,11,03,06,19,0.00
2019,11,03,06,20,0.00
2019,11,03,06,21,0.00
2019,11,03,06,22,0.00
2019,11,03,06,23,0.00
2019,11,03,06,24,0.00
2019,11,03,06,25,0.00
2019,11,03,06,26,0.00
2019,11,03,06,27,0.00
2019,11,03,06,28,0.00
2019,11,03,06,29,0.00
2019,11,03,06,30,0.00
2019,11,03,06,31,0.00
2019,11,03,06,32,0.00
2019,11,03,06,33,0.00
2019,11,03,06,34,0.00
2019,11,03,06,35,0.00
2019,11,03,06,36,0.00
2019,11,03,06,37,0.00
2019,11,03,06,38,0.00
2019,11,03,06,39,0.00
2019,11,03,06,40,0.00
2019,11,03,06,41,0.00
2019,11,03,06,42,0.00
2019,11,03,06,43,0.00
2019,11,03,06,44,0.00
2019,11,03,06,45,0.00
2019,11,03,06,46,0.00
2019,11,03,06,47,0.00
2019,11,03,06,48,0.00
2019,11,03,06,49,0.00
2019,11,03,06,50,0.00
2019,11,03,06,51,0.00
2019,11,03,06,52,0.00
2019,11,03,06,53,0.00
2019,11,03,06,54,0.00
2019,11,03,06,55,0.00
2019,11,03,06,56,0.00
2019,11,03,06,57,0.00
2019,11,03,06,58,0.00
2019,11,03,06,59,0.00
2019,11,03,07,00,0.00
2019,11,03,07,01,0.00
2019,11,03,07,02,0.00
2019,11,03,07,03,0.00
2019,11,03,07,04,0.00
2019,11,03,07,05,0.00
2019,11,03,07,06,0.00
2019,11,03,07,07,0.00
2019,11,03,07,08,0.00
2019,11,03,07,09,0.00
2019,11,03,07,10,0.00
2019,11,03,07,11,0.00
2019,11,03,07,12,0.00
2019,11,03,07,13,0.00
2019,11,03,07,14,0.00
2019,11,03,07,15,0.00
2019,11,03,07,16,0.00
2019,11,03,07,17,0.00
2019,11,03,07,18,0.00
2019,11,03,07,19,0.00
2019,11,03,07,20,0.00
2019,11,03,07,21,0.00
2019,11,03,07,22,0.00
2019,11,03,07,23,0.00
2019,11,03,07,24,0.00
2019,11,03,07,25,0.00
2019,11,03,07,26,0.00
2019,11,03,07,27,0.00
2019,11,03,07,28,0.00
2019,11,03,07,29,1.20
2019,11,03,07,30,5.00
2019,11,03,07,31,5.00
2019,11,03,07,32,5.00
2019,11,03,07,33,6.50
2019,11,03,07,34,7.00
2019,11,03,07,35,7.30
2019,11,03,07,36,9.00
2019,11,03,07,37,9.00
2019,11,03,07,38,9.00
2019,11,03,07,39,9.00
2019,11,03,07,40,9.00
2019,11,03,07,41,9.00
2019,11,03,07,42,9.00
2019,11,03,07,43,9.50
2019,11,03,07,44,11.00
2019,11,03,07,45,11.00
2019,11,03,07,46,11.00
2019,11,03,07,47,11.00
2019,11,03,07,48,11.00
2019,11,03,07,49,11.00
2019,11,03,07,50,11.00
2019,11,03,07,51,11.00
2019,11,03,07,52,11.00
2019,11,03,07,53,11.60
2019,11,03,07,54,12.00
2019,11,03,07,55,12.00
2019,11,03,07,56,12.00
2019,11,03,07,57,12.00
2019,11,03,07,58,12.00
2019,11,03,07,59,13.00
2019,11,03,08,00,14.00
2019,11,03,08,01,14.00
2019,11,03,08,02,14.00
2019,11,03,08,03,16.00
2019,11,03,08,04,16.50
2019,11,03,08,05,18.00
2019,11,03,08,06,18.00
2019,11,03,08,07,16.80
2019,11,03,08,08,16.00
2019,11,03,08,09,16.00
2019,11,03,08,10,16.00
2019,11,03,08,11,16.50
2019,11,03,08,12,18.00
2019,11,03,08,13,18.00
2019,11,03,08,14,18.00
2019,11,03,08,15,18.70
2019,11,03,08,16,19.00
2019,11,03,08,17,19.00
2019,11,03,08,18,19.00
2019,11,03,08,19,18.60
2019,11,03,08,20,18.00
2019,11,03,08,21,18.00
2019,11,03,08,22,18.00
2019,11,03,08,23,18.90
2019,11,03,08,24,21.10
2019,11,03,08,25,23.50
2019,11,03,08,26,25.00
2019,11,03,08,27,25.00
2019,11,03,08,28,25.60
2019,11,03,08,29,27.40
2019,11,03,08,30,29.70
2019,11,03,08,31,27.70
2019,11,03,08,32,24.50
2019,11,03,08,33,23.00
2019,11,03,08,34,23.00
2019,11,03,08,35,23.00
2019,11,03,08,36,24.50
2019,11,03,08,37,25.90
2019,11,03,08,38,25.00
2019,11,03,08,39,25.00
2019,11,03,08,40,25.00
2019,11,03,08,41,25.00
2019,11,03,08,42,25.00
2019,11,03,08,43,25.00
2019,11,03,08,44,25.00
2019,11,03,08,45,25.10
2019,11,03,08,46,26.50
2019,11,03,08,47,29.50
2019,11,03,08,48,33.50
2019,11,03,08,49,36.30
2019,11,03,08,50,39.20
2019,11,03,08,51,41.80
2019,11,03,08,52,41.80
2019,11,03,08,53,39.80
2019,11,03,08,54,38.30
2019,11,03,08,55,36.00
2019,11,03,08,56,33.80
2019,11,03,08,57,30.80
2019,11,03,08,58,30.00
2019,11,03,08,59,33.40
2019,11,03,09,00,37.80
2019,11,03,09,01,40.70
2019,11,03,09,02,44.50
2019,11,03,09,03,48.20
2019,11,03,09,04,49.00
2019,11,03,09,05,46.40
2019,11,03,09,06,39.90
2019,11,03,09,07,38.60
2019,11,03,09,08,36.30
2019,11,03,09,09,35.00
2019,11,03,09,10,36.30
2019,11,03,09,11,39.20
2019,11,03,09,12,46.20
2019,11,03,09,13,49.10
2019,11,03,09,14,51.50
2019,11,03,09,15,52.30
2019,11,03,09,16,47.50
2019,11,03,09,17,44.00
2019,11,03,09,18,44.00
2019,11,03,09,19,42.30
2019,11,03,09,20,41.80
2019,11,03,09,21,39.80
2019,11,03,09,22,39.40
2019,11,03,09,23,42.00
2019,11,03,09,24,45.90
2019,11,03,09,25,51.50
2019,11,03,09,26,55.60
2019,11,03,09,27,52.80
2019,11,03,09,28,50.50
2019,11,03,09,29,46.40
2019,11,03,09,30,39.50
2019,11,03,09,31,34.00
2019,11,03,09,32,32.70
2019,11,03,09,33,38.10
2019,11,03,09,34,42.20
2019,11,03,09,35,44.70
2019,11,03,09,36,47.00
2019,11,03,09,37,48.00
2019,11,03,09,38,50.30
2019,11,03,09,39,48.00
2019,11,03,09,40,42.60
2019,11,03,09,41,44.90
2019,11,03,09,42,55.20
2019,11,03,09,43,63.10
2019,11,03,09,44,63.50
2019,11,03,09,45,58.20
2019,11,03,09,46,51.00
2019,11,03,09,47,49.00
2019,11,03,09,48,49.60
2019,11,03,09,49,53.70
2019,11,03,09,50,57.50
2019,11,03,09,51,60.00
2019,11,03,09,52,63.00
2019,11,03,09,53,68.00
2019,11,03,09,54,69.90
2019,11,03,09,55,64.40
2019,11,03,09,56,60.00
2019,11,03,09,57,60.00
2019,11,03,09,58,61.00
2019,11,03,09,59,62.60
2019,11,03,10,00,63.00
2019,11,03,10,01,64.80
2019,11,03,10,02,67.10
2019,11,03,10,03,69.20
2019,11,03,10,04,72.20
2019,11,03,10,05,76.50
2019,11,03,10,06,78.20
2019,11,03,10,07,82.70
2019,11,03,10,08,90.00
2019,11,03,10,09,95.00
2019,11,03,10,10,96.80
2019,11,03,10,11,106.10
2019,11,03,10,12,111.00
2019,11,03,10,13,97.00
2019,11,03,10,14,80.70
2019,11,03,10,15,72.70
2019,11,03,10,16,71.80
2019,11,03,10,17,69.80
2019,11,03,10,18,69.00
2019,11,03,10,19,69.50
2019,11,03,10,20,71.20
2019,11,03,10,21,72.00
2019,11,03,10,22,70.20
2019,11,03,10,23,67.10
2019,11,03,10,24,69.20
2019,11,03,10,25,78.40
2019,11,03,10,26,77.50
2019,11,03,10,27,69.80
2019,11,03,10,28,65.50
2019,11,03,10,29,60.70
2019,11,03,10,30,60.00
2019,11,03,10,31,60.00
2019,11,03,10,32,62.50
2019,11,03,10,33,69.40
2019,11,03,10,34,69.00
2019,11,03,10,35,60.30
2019,11,03,10,36,52.00
2019,11,03,10,37,49.50
2019,11,03,10,38,53.80
2019,11,03,10,39,53.40
2019,11,03,10,40,54.00
2019,11,03,10,41,54.00
2019,11,03,10,42,54.00
2019,11,03,10,43,54.00
2019,11,03,10,44,54.20
2019,11,03,10,45,55.50
2019,11,03,10,46,54.70
2019,11,03,10,47,57.90
2019,11,03,10,48,60.00
2019,11,03,10,49,57.00
2019,11,03,10,50,59.60
2019,11,03,10,51,65.60
2019,11,03,10,52,73.20
2019,11,03,10,53,77.00
2019,11,03,10,54,74.50
2019,11,03,10,55,72.00
2019,11,03,10,56,70.60
2019,11,03,10,57,67.40
2019,11,03,10,58,69.10
2019,11,03,10,59,71.00
2019,11,03,11,00,75.10
2019,11,03,11,01,78.00
2019,11,03,11,02,82.00
2019,11,03,11,03,93.60
2019,11,03,11,04,103.00
2019,11,03,11,05,97.70
2019,11,03,11,06,93.00
2019,11,03,11,07,94.40
2019,11,03,11,08,98.50
2019,11,03,11,09,98.70
2019,11,03,11,10,93.00
2019,11,03,11,11,90.10
2019,11,03,11,12,90.30
2019,11,03,11,13,93.00
2019,11,03,11,14,91.20
2019,11,03,11,15,85.50
2019,11,03,11,16,83.60
2019,11,03,11,17,88.40
2019,11,03,11,18,90.90
2019,11,03,11,19,90.70
2019,11,03,11,20,86.80
2019,11,03,11,21,82.30
2019,11,03,11,22,80.00
2019,11,03,11,23,74.60
2019,11,03,11,24,72.00
2019,11,03,11,25,60.10
2019,11,03,11,26,55.80
2019,11,03,11,27,52.50
2019,11,03,11,28,53.60
2019,11,03,11,29,61.20
2019,11,03,11,30,66.20
2019,11,03,11,31,64.00
2019,11,03,11,32,63.00
2019,11,03,11,33,62.00
2019,11,03,11,34,62.20
2019,11,03,11,35,64.40
2019,11,03,11,36,65.00
2019,11,03,11,37,63.00
2019,11,03,11,38,68.00
2019,11,03,11,39,71.70
2019,11,03,11,40,69.00
2019,11,03,11,41,70.80
2019,11,03,11,42,79.60
2019,11,03,11,43,86.00
2019,11,03,11,44,81.80
2019,11,03,11,45,75.30
2019,11,03,11,46,70.60
2019,11,03,11,47,72.40
2019,11,03,11,48,76.20
2019,11,03,11,49,79.50
2019,11,03,11,50,84.00
2019,11,03,11,51,92.20
2019,11,03,11,52,91.80
2019,11,03,11,53,88.20
2019,11,03,11,54,95.00
2019,11,03,11,55,94.60
2019,11,03,11,56,82.40
2019,11,03,11,57,75.00
2019,11,03,11,58,78.40
2019,11,03,11,59,86.20
2019,11,03,12,00,90.70
2019,11,03,12,01,88.20
2019,11,03,12,02,91.80
2019,11,03,12,03,100.00
2019,11,03,12,04,112.50
2019,11,03,12,05,128.50
2019,11,03,12,06,136.20
2019,11,03,12,07,120.70
2019,11,03,12,08,121.00
2019,11,03,12,09,141.70
2019,11,03,12,10,146.00
2019,11,03,12,11,124.00
2019,11,03,12,12,106.60
2019,11,03,12,13,102.60
2019,11,03,12,14,106.30
2019,11,03,12,15,120.10
2019,11,03,12,16,117.40
2019,11,03,12,17,103.90
2019,11,03,12,18,101.00
2019,11,03,12,19,93.90
2019,11,03,12,20,88.50
2019,11,03,12,21,98.30
2019,11,03,12,22,110.60
2019,11,03,12,23,106.60
2019,11,03,12,24,105.70
2019,11,03,12,25,108.00
2019,11,03,12,26,102.20
2019,11,03,12,27,92.30
2019,11,03,12,28,94.30
2019,11,03,12,29,113.90
2019,11,03,12,30,117.00
2019,11,03,12,31,102.10
2019,11,03,12,32,97.50
2019,11,03,12,33,102.40
2019,11,03,12,34,117.00
2019,11,03,12,35,124.40
2019,11,03,12,36,120.80
2019,11,03,12,37,129.00
2019,11,03,12,38,138.90
2019,11,03,12,39,145.00
2019,11,03,12,40,142.80
2019,11,03,12,41,146.40
2019,11,03,12,42,162.60
2019,11,03,12,43,176.00
2019,11,03,12,44,172.90
2019,11,03,12,45,161.30
2019,11,03,12,46,156.50
2019,11,03,12,47,147.30
2019,11,03,12,48,142.50
2019,11,03,12,49,150.00
2019,11,03,12,50,149.90
2019,11,03,12,51,134.20
2019,11,03,12,52,116.60
2019,11,03,12,53,128.40
2019,11,03,12,54,148.50
2019,11,03,12,55,159.00
2019,11,03,12,56,160.00
2019,11,03,12,57,139.00
2019,11,03,12,58,111.80
2019,11,03,12,59,101.40
2019,11,03,13,00,98.50
2019,11,03,13,01,95.60
2019,11,03,13,02,95.90
2019,11,03,13,03,89.30
2019,11,03,13,04,83.10
2019,11,03,13,05,83.20
2019,11,03,13,06,82.10
2019,11,03,13,07,86.00
2019,11,03,13,08,89.30
2019,11,03,13,09,90.00
2019,11,03,13,10,88.30
2019,11,03,13,11,85.80
2019,11,03,13,12,83.20
2019,11,03,13,13,79.60
2019,11,03,13,14,76.50
2019,11,03,13,15,76.60
2019,11,03,13,16,74.80
2019,11,03,13,17,72.20
2019,11,03,13,18,74.10
2019,11,03,13,19,76.20
2019,11,03,13,20,77.70
2019,11,03,13,21,82.50
2019,11,03,13,22,86.00
2019,11,03,13,23,81.00
2019,11,03,13,24,77.30
2019,11,03,13,25,76.00
2019,11,03,13,26,75.50
2019,11,03,13,27,74.70
2019,11,03,13,28,73.10
2019,11,03,13,29,74.20
2019,11,03,13,30,81.50
2019,11,03,13,31,87.30
2019,11,03,13,32,83.10
2019,11,03,13,33,85.30
2019,11,03,13,34,92.50
2019,11,03,13,35,96.00
2019,11,03,13,36,90.60
2019,11,03,13,37,89.50
2019,11,03,13,38,84.70
2019,11,03,13,39,84.00
2019,11,03,13,40,84.00
2019,11,03,13,41,84.00
2019,11,03,13,42,89.10
2019,11,03,13,43,98.00
2019,11,03,13,44,93.30
2019,11,03,13,45,84.10
2019,11,03,13,46,80.80
2019,11,03,13,47,77.40
2019,11,03,13,48,69.50
2019,11,03,13,49,67.40
2019,11,03,13,50,71.20
2019,11,03,13,51,70.50
2019,11,03,13,52,73.60
2019,11,03,13,53,76.80
2019,11,03,13,54,83.20
2019,11,03,13,55,80.30
2019,11,03,13,56,84.30
2019,11,03,13,57,94.90
2019,11,03,13,58,101.00
2019,11,03,13,59,102.00
2019,11,03,14,00,115.30
2019,11,03,14,01,112.20
2019,11,03,14,02,113.70
2019,11,03,14,03,132.00
2019,11,03,14,04,139.00
2019,11,03,14,05,127.10
2019,11,03,14,06,106.70
2019,11,03,14,07,118.90
2019,11,03,14,08,144.20
2019,11,03,14,09,152.40
2019,11,03,14,10,148.30
2019,11,03,14,11,138.60
2019,11,03,14,12,140.80
2019,11,03,14,13,129.10
2019,11,03,14,14,105.70
2019,11,03,14,15,94.50
2019,11,03,14,16,95.60
2019,11,03,14,17,100.00
2019,11,03,14,18,100.00
2019,11,03,14,19,96.30
2019,11,03,14,20,95.00
2019,11,03,14,21,100.40
2019,11,03,14,22,105.50
2019,11,03,14,23,111.70
2019,11,03,14,24,115.40
2019,11,03,14,25,111.30
2019,11,03,14,26,107.00
2019,11,03,14,27,104.30
2019,11,03,14,28,91.00
2019,11,03,14,29,92.00
2019,11,03,14,30,95.00
2019,11,03,14,31,96.50
2019,11,03,14,32,98.00
2019,11,03,14,33,97.30
2019,11,03,14,34,101.30
2019,11,03,14,35,98.90
2019,11,03,14,36,90.20
2019,11,03,14,37,92.40
2019,11,03,14,38,96.40
2019,11,03,14,39,107.10
2019,11,03,14,40,115.20
2019,11,03,14,41,116.00
2019,11,03,14,42,113.60
2019,11,03,14,43,117.50
2019,11,03,14,44,117.40
2019,11,03,14,45,121.40
2019,11,03,14,46,120.00
2019,11,03,14,47,108.40
2019,11,03,14,48,96.40
2019,11,03,14,49,91.20
2019,11,03,14,50,92.50
2019,11,03,14,51,89.20
2019,11,03,14,52,83.60
2019,11,03,14,53,75.50
2019,11,03,14,54,65.30
2019,11,03,14,55,62.10
2019,11,03,14,56,61.80
2019,11,03,14,57,59.00
2019,11,03,14,58,56.00
2019,11,03,14,59,56.00
2019,11,03,15,00,56.00
2019,11,03,15,01,56.00
2019,11,03,15,02,56.00
2019,11,03,15,03,55.80
2019,11,03,15,04,54.00
2019,11,03,15,05,54.00
2019,11,03,15,06,54.00
2019,11,03,15,07,54.00
2019,11,03,15,08,53.20
2019,11,03,15,09,53.90
2019,11,03,15,10,54.20
2019,11,03,15,11,56.00
2019,11,03,15,12,56.00
2019,11,03,15,13,56.00
2019,11,03,15,14,54.80
2019,11,03,15,15,54.00
2019,11,03,15,16,54.00
2019,11,03,15,17,54.00
2019,11,03,15,18,54.00
2019,11,03,15,19,54.70
2019,11,03,15,20,55.00
2019,11,03,15,21,55.30
2019,11,03,15,22,56.00
2019,11,03,15,23,56.00
2019,11,03,15,24,56.00
2019,11,03,15,25,48.50
2019,11,03,15,26,37.10
2019,11,03,15,27,56.00
2019,11,03,15,28,54.80
2019,11,03,15,29,54.00
2019,11,03,15,30,54.00
2019,11,03,15,31,53.00
2019,11,03,15,32,52.60
2019,11,03,15,33,51.00
2019,11,03,15,34,50.00
2019,11,03,15,35,47.20
2019,11,03,15,36,46.70
2019,11,03,15,37,42.70
2019,11,03,15,38,42.20
2019,11,03,15,39,43.10
2019,11,03,15,40,40.00
2019,11,03,15,41,40.00
2019,11,03,15,42,40.00
2019,11,03,15,43,40.00
2019,11,03,15,44,39.10
2019,11,03,15,45,39.10
2019,11,03,15,46,40.00
2019,11,03,15,47,40.00
2019,11,03,15,48,39.50
2019,11,03,15,49,39.00
2019,11,03,15,50,37.50
2019,11,03,15,51,37.00
2019,11,03,15,52,37.00
2019,11,03,15,53,37.00
2019,11,03,15,54,37.00
2019,11,03,15,55,36.00
2019,11,03,15,56,36.30
2019,11,03,15,57,35.60
2019,11,03,15,58,33.30
2019,11,03,15,59,33.20
2019,11,03,16,00,35.50
2019,11,03,16,01,36.30
2019,11,03,16,02,35.00
2019,11,03,16,03,33.20
2019,11,03,16,04,30.50
2019,11,03,16,05,30.00
2019,11,03,16,06,30.00
2019,11,03,16,07,29.50
2019,11,03,16,08,28.00
2019,11,03,16,09,29.90
2019,11,03,16,10,33.80
2019,11,03,16,11,36.50
2019,11,03,16,12,31.00
2019,11,03,16,13,26.40
2019,11,03,16,14,28.90
2019,11,03,16,15,32.00
2019,11,03,16,16,32.00
2019,11,03,16,17,30.80
2019,11,03,16,18,30.00
2019,11,03,16,19,26.60
2019,11,03,16,20,22.90
2019,11,03,16,21,21.00
2019,11,03,16,22,21.00
2019,11,03,16,23,20.00
2019,11,03,16,24,19.00
2019,11,03,16,25,19.00
2019,11,03,16,26,18.10
2019,11,03,16,27,17.80
2019,11,03,16,28,16.00
2019,11,03,16,29,16.00
2019,11,03,16,30,15.00
2019,11,03,16,31,14.00
2019,11,03,16,32,14.00
2019,11,03,16,33,12.30
2019,11,03,16,34,12.00
2019,11,03,16,35,11.80
2019,11,03,16,36,11.00
2019,11,03,16,37,11.00
2019,11,03,16,38,11.00
2019,11,03,16,39,9.50
2019,11,03,16,40,9.00
2019,11,03,16,41,8.80
2019,11,03,16,42,7.00
2019,11,03,16,43,7.00
2019,11,03,16,44,7.00
2019,11,03,16,45,5.80
2019,11,03,16,46,5.00
2019,11,03,16,47,5.00
2019,11,03,16,48,5.00
2019,11,03,16,49,5.00
2019,11,03,16,50,5.00
2019,11,03,16,51,5.00
2019,11,03,16,52,5.00
2019,11,03,16,53,5.00
2019,11,03,16,54,5.00
2019,11,03,16,55,5.00
2019,11,03,16,56,5.00
2019,11,03,16,57,5.00
2019,11,03,16,58,5.00
2019,11,03,16,59,2.00
2019,11,03,17,00,0.00
2019,11,03,17,01,0.00
2019,11,03,17,02,0.00
2019,11,03,17,03,0.00
2019,11,03,17,04,0.00
2019,11,03,17,05,0.00
2019,11,03,17,06,0.00
2019,11,03,17,07,0.00
2019,11,03,17,08,0.00
2019,11,03,17,09,0.00
2019,11,03,17,10,0.00
2019,11,03,17,11,0.00
2019,11,03,17,12,0.00
2019,11,03,17,13,0.00
2019,11,03,17,14,0.00
2019,11,03,17,15,0.00
2019,11,03,17,16,0.00
2019,11,03,17,17,0.00
2019,11,03,17,18,0.00
2019,11,03,17,19,0.00
2019,11,03,17,20,0.00
2019,11,03,17,21,0.00
2019,11,03,17,22,0.00
2019,11,03,17,23,0.00
2019,11,03,17,24,0.00
2019,11,03,17,25,0.00
2019,11,03,17,26,0.00
2019,11,03,17,27,0.00
2019,11,03,17,28,0.00
2019,11,03,17,29,0.00
2019,11,03,17,30,0.00
2019,11,03,17,31,0.00
2019,11,03,17,32,0.00
2019,11,03,17,33,0.00
2019,11,03,17,34,0.00
2019,11,03,17,35,0.00
2019,11,03,17,36,0.00
2019,11,03,17,37,0.00
2019,11,03,17,38,0.00
2019,11,03,17,39,0.00